PulseSat

PulseSat

GSAT0103 (GALILEO-FM3)

Last updated on April 20, 2019, 3:01 a.m. UTC

1 38857U 12055A   19108.13466726  .00000025  00000-0  00000-0 0  9995
2 38857  54.9245 173.5247 0004431 259.8168 100.2144  1.70473685 40548
UTC
Height (km)
Latitude
Longitude
Inclination
Orbital Period

Next 30 passes for location: Hong Kong

Rise time Rise Azimuth (degrees) Set time Set Azimuth (degrees) Duration Max altitude (degrees)

No matching passes for this satellites

PulseSat

PulseSat is the new satellites software and hardware trackering solution by Pulsely.
Satellite Two Line Element Set source: US Air Force Space Command

Download PulseSat for iOS
© 2017 Pulsely Limited